N0OQA Weather Reports


Display with metric or nautical units.
time (UTC)temp
F
wind
direction
speed
MPH
gust
MPH
rain 1hr
in
rain 24hr
in
rain mn
in
humidity
%
barometer
mb
20260831011926 78 66 3.0 7.0 0.00 0.00 0.00 81 1010.3
20260831011425 78 350 3.0 7.0 0.00 0.00 0.00 81 1010.2
20260831010925 78 46 3.0 6.0 0.00 0.00 0.00 80 1010.1
20260831005924 79 46 3.0 6.0 0.00 0.00 0.00 79 1010.2
20260831005424 79 91 1.0 4.0 0.00 0.00 0.00 79 1010.2
20260831004924 79 93 2.0 4.0 0.00 0.00 0.00 78 1010.2
20260831004424 79 174 4.0 6.0 0.00 0.00 0.00 78 1010.2
20260831003923 79 14 4.0 7.0 0.00 0.00 0.00 77 1010.2
20260831003423 80 30 3.0 9.0 0.00 0.00 0.00 77 1010.3
20260831002923 79 304 2.0 4.0 0.00 0.00 0.00 76 1010.3
20260831002422 80 56 4.0 10.0 0.00 0.00 0.00 67 1009.8
20260831001922 80 28 4.0 6.0 0.00 0.00 0.00 76 1010.3
20260831001422 81 72 4.0 8.0 0.00 0.00 0.00 76 1010.3
20260831000922 80 257 3.0 8.0 0.00 0.00 0.00 76 1010.3
20260830235921 80 49 3.0 5.0 0.00 0.00 0.00 75 1010.2
20260830235421 81 191 4.0 6.0 0.00 0.00 0.00 75 1010.1
20260830234420 80 49 3.0 6.0 0.00 0.00 0.00 74 1010.2
20260830232919 81 198 4.0 8.0 0.00 0.00 0.00 73 1010.3
20260830232419 81 198 4.0 8.0 0.00 0.00 0.00 73 1010.3
20260830231919 81 103 5.0 8.0 0.00 0.00 0.00 73 1010.2
20260830231418 81 345 0.0 4.0 0.00 0.00 0.00 72 1010.2
20260830230918 81 118 3.0 7.0 0.00 0.00 0.00 72 1010.3
20260830230417 81 346 5.0 10.0 0.00 0.00 0.00 71 1010.3
20260830225917 82 356 5.0 8.0 0.00 0.00 0.00 72 1010.3
20260830225417 82 267 2.0 5.0 0.00 0.00 0.00 71 1010.2
20260830224916 81 6 5.0 11.0 0.00 0.00 0.00 71 1010.2
20260830224416 81 203 4.0 8.0 0.00 0.00 0.00 71 1010.2
20260830223915 82 336 4.0 10.0 0.00 0.00 0.00 70 1010.2
20260830223414 82 37 3.0 5.0 0.00 0.00 0.00 70 1010.3
20260830222413 82 359 3.0 8.0 0.00 0.00 0.00 70 1010.3
20260830220912 83 333 4.0 6.0 0.00 0.00 0.00 69 1010.5
20260830220412 83 329 4.0 8.0 0.00 0.00 0.00 69 1010.5
20260830215912 82 68 5.0 10.0 0.00 0.00 0.00 69 1010.5
20260830215412 82 58 5.0 8.0 0.00 0.00 0.00 69 1010.5
20260830214911 83 38 3.0 9.0 0.00 0.00 0.00 68 1009.4
20260830214411 82 146 2.0 6.0 0.00 0.00 0.00 70 1010.8
20260830213909 81 96 5.0 9.0 0.00 0.00 0.00 71 1010.8
20260830213409 81 14 5.0 7.0 0.00 0.00 0.00 72 1010.8
20260830212909 81 311 4.0 8.0 0.00 0.00 0.00 72 1010.9
20260830212409 81 72 4.0 6.0 0.00 0.00 0.00 71 1010.9
20260830211408 81 65 4.0 7.0 0.00 0.00 0.00 72 1011.0
20260830210407 81 176 6.0 10.0 0.00 0.00 0.00 70 1011.1
20260830205906 81 170 3.0 8.0 0.00 0.00 0.00 69 1011.2
20260830205406 81 41 5.0 7.0 0.00 0.00 0.00 70 1011.2
20260830204405 81 11 5.0 9.0 0.00 0.00 0.00 71 1011.2
20260830203905 82 21 7.0 10.0 0.00 0.00 0.00 69 1011.2
20260830203405 82 349 6.0 11.0 0.00 0.00 0.00 69 1011.0
20260830202904 81 172 7.0 10.0 0.00 0.00 0.00 70 1010.9
20260830202404 81 353 5.0 12.0 0.00 0.00 0.00 71 1010.8
20260830201904 80 160 6.0 13.0 0.00 0.00 0.00 72 1010.9
20260830201403 80 160 7.0 10.0 0.00 0.00 0.00 73 1010.9
20260830200903 80 180 5.0 9.0 0.00 0.00 0.00 73 1011.0
20260830200403 80 172 6.0 11.0 0.00 0.00 0.00 72 1010.9
20260830195902 80 51 6.0 10.0 0.00 0.00 0.00 72 1011.0
20260830195402 80 49 6.0 8.0 0.00 0.00 0.00 73 1011.1
20260830194902 80 347 6.0 10.0 0.00 0.00 0.00 74 1011.3
20260830194402 80 183 5.0 8.0 0.00 0.00 0.00 75 1011.2
20260830193901 79 7 7.0 15.0 0.00 0.00 0.00 74 1011.0
20260830192901 79 14 5.0 10.0 0.00 0.00 0.00 75 1011.6
20260830192400 79 0 5.0 8.0 0.00 0.00 0.00 75 1011.6
20260830191900 79 62 5.0 9.0 0.00 0.00 0.00 75 1011.7
20260830191400 79 195 6.0 10.0 0.00 0.00 0.00 76 1012.0
20260830190900 79 10 6.0 8.0 0.00 0.00 0.00 78 1012.0
20260830190359 78 23 4.0 7.0 0.00 0.00 0.00 80 1012.1
20260830185859 77 23 5.0 7.0 0.00 0.00 0.00 81 1012.3
20260830185359 77 73 5.0 8.0 0.00 0.00 0.00 82 1012.3
20260830184358 76 218 3.0 6.0 0.00 0.00 0.00 83 1012.5
20260830183858 76 186 4.0 7.0 0.00 0.00 0.00 83 1012.4
20260830183358 76 152 4.0 7.0 0.00 0.00 0.00 83 1012.5
20260830182857 76 179 5.0 8.0 0.00 0.00 0.00 83 1012.5
20260830181356 75 0 0.0 0.0 0.00 0.00 0.00 85 1012.4
20260830180856 75 23 3.0 6.0 0.00 0.00 0.00 87 1012.5
20260830180356 74 339 5.0 6.0 0.00 0.00 0.00 87 1012.5
20260830175856 74 18 4.0 8.0 0.00 0.00 0.00 87 1012.5
20260830174855 73 342 4.0 8.0 0.00 0.00 0.00 87 1012.4
20260830174355 74 335 3.0 7.0 0.00 0.00 0.00 87 1012.5
20260830173854 74 52 3.0 6.0 0.00 0.00 0.00 88 1012.5
20260830173354 73 207 5.0 9.0 0.00 0.00 0.00 87 1012.6
20260830172854 74 84 4.0 6.0 0.00 0.00 0.00 87 1012.5
20260830171852 73 87 2.0 5.0 0.00 0.00 0.00 88 1012.5
20260830170851 73 177 4.0 7.0 0.00 0.00 0.00 89 1012.6
20260830170351 73 75 4.0 7.0 0.00 0.00 0.00 89 1012.4
20260830165851 73 58 4.0 5.0 0.00 0.00 0.00 89 1012.2
20260830165350 73 87 4.0 7.0 0.00 0.00 0.00 90 1012.2
20260830164850 72 94 3.0 5.0 0.00 0.00 0.00 91 1012.2
20260830163849 72 35 5.0 10.0 0.00 0.00 0.00 92 1012.1
20260830163349 71 10 6.0 10.0 0.00 0.00 0.00 92 1012.1
20260830162849 72 66 4.0 5.0 0.00 0.00 0.00 92 1012.1
20260830162349 71 21 8.0 11.0 0.00 0.00 0.00 93 1012.1
20260830161848 71 59 5.0 8.0 0.00 0.00 0.00 93 1012.2
20260830161348 71 37 5.0 8.0 0.00 0.00 0.00 93 1012.3
20260830160848 71 42 5.0 12.0 0.00 0.00 0.00 93 1012.2
20260830160347 71 359 5.0 9.0 0.00 0.00 0.00 93 1012.1
20260830155847 71 15 5.0 10.0 0.00 0.00 0.00 93 1012.3
20260830155347 71 42 5.0 9.0 0.00 0.00 0.00 93 1012.3
20260830154845 71 7 5.0 7.0 0.00 0.00 0.00 93 1012.3
20260830154345 71 18 5.0 9.0 0.00 0.00 0.00 93 1012.5
20260830153845 71 30 6.0 8.0 0.00 0.00 0.00 94 1012.4
20260830153344 71 6 6.0 12.0 0.00 0.00 0.00 94 1012.4
20260830152844 71 41 5.0 8.0 0.00 0.00 0.00 95 1012.3
20260830152344 70 228 6.0 9.0 0.00 0.00 0.00 95 1012.1
20260830151844 70 4 9.0 15.0 0.00 0.00 0.00 95 1011.9
20260830151343 70 37 7.0 11.0 0.00 0.00 0.00 96 1012.2
20260830150843 70 10 6.0 11.0 0.00 0.00 0.00 96 1012.3
20260830150343 70 31 4.0 5.0 0.00 0.00 0.00 97 1012.4
20260830145842 70 30 6.0 9.0 0.00 0.00 0.00 98 1012.5
20260830144842 69 82 3.0 7.0 0.00 0.00 0.00 99 1012.3
20260830142841 68 34 3.0 3.0 0.00 0.00 0.00 100 1012.5
20260830142340 68 80 5.0 9.0 0.00 0.00 0.00 100 1012.4
20260830141840 68 23 3.0 6.0 0.00 0.00 0.00 100 1012.4
20260830140839 67 297 4.0 5.0 0.00 0.00 0.00 100 1012.3
20260830140339 67 32 1.0 3.0 0.00 0.00 0.00 100 1012.1
20260830135839 67 105 5.0 10.0 0.00 0.00 0.00 100 1012.2
20260830135339 67 60 2.0 6.0 0.00 0.00 0.00 100 1012.3
20260830134338 67 75 5.0 7.0 0.00 0.00 0.00 100 1012.3
20260830133836 66 39 5.0 8.0 0.00 0.00 0.00 100 1012.0
20260830133336 67 83 4.0 7.0 0.00 0.00 0.00 100 1012.1
20260830132836 67 80 5.0 7.0 0.00 0.00 0.00 100 1012.2
20260830131835 66 72 4.0 6.0 0.00 0.00 0.00 100 1012.2
20260830131335 67 89 4.0 11.0 0.00 0.00 0.00 100 1012.2
20260830130333 66 51 4.0 5.0 0.00 0.00 0.00 100 1012.3
20260830125827 67 359 4.0 9.0 0.00 0.00 0.00 100 1012.4
20260830123826 66 359 3.0 4.0 0.00 0.00 0.00 100 1012.1
20260830123326 66 38 2.0 5.0 0.00 0.00 0.00 100 1012.1
20260830122826 66 0 0.0 0.0 0.00 0.00 0.00 100 1012.3
20260830122325 66 0 0.0 0.0 0.00 0.00 0.00 100 1012.1
20260830121825 66 62 2.0 3.0 0.00 0.00 0.00 100 1012.5
20260830120824 66 45 4.0 7.0 0.00 0.00 0.00 100 1012.1
20260830120324 66 121 4.0 8.0 0.00 0.00 0.00 100 1011.7
20260830115824 66 87 2.0 7.0 0.00 0.00 0.00 100 1011.5
20260830115323 66 69 2.0 5.0 0.00 0.00 0.00 100 1011.6
20260830113821 66 0 0.0 0.0 0.00 0.00 0.00 100 1011.7
20260830113321 66 48 2.0 5.0 0.00 0.00 0.00 100 1011.9
20260830112821 66 0 0.0 0.0 0.00 0.00 0.00 100 1011.8
20260830105319 66 0 0.0 0.0 0.00 0.00 0.00 100 1012.1
20260830104817 66 0 0.0 0.0 0.00 0.00 0.00 100 1012.0
20260830103816 66 45 0.0 2.0 0.00 0.00 0.00 100 1011.9
20260830102815 66 46 0.0 2.0 0.00 0.00 0.00 100 1012.0
20260830102315 66 0 0.0 0.0 0.00 0.00 0.00 100 1012.0
20260830100814 66 0 0.0 0.0 0.00 0.00 0.00 100 1011.9
20260830100313 66 0 0.0 0.0 0.00 0.00 0.00 100 1012.1
20260830095813 66 49 2.0 6.0 0.00 0.00 0.00 100 1011.9
20260830095313 67 45 1.0 4.0 0.00 0.00 0.00 100 1011.8
20260830094813 66 55 2.0 3.0 0.00 0.00 0.00 100 1011.7
20260830094312 67 0 0.0 0.0 0.00 0.00 0.00 100 1011.6
20260830093812 67 46 2.0 5.0 0.00 0.00 0.00 100 1011.6
20260830093312 67 45 2.0 3.0 0.00 0.00 0.00 100 1011.6
20260830092810 67 0 0.0 0.0 0.00 0.00 0.00 100 1011.7
20260830091810 67 0 0.0 0.0 0.00 0.00 0.00 100 1011.7
20260830091309 67 0 0.0 0.0 0.00 0.00 0.00 100 1011.5
20260830090809 67 0 0.0 0.0 0.00 0.00 0.00 100 1011.6
20260830090309 67 0 0.0 0.0 0.00 0.00 0.00 100 1011.6
20260830085808 67 0 0.0 0.0 0.00 0.00 0.00 100 1011.7
20260830084808 67 0 0.0 0.0 0.00 0.00 0.00 100 1011.9
20260830084308 67 65 1.0 4.0 0.00 0.00 0.00 100 1012.0
20260830083807 67 59 2.0 6.0 0.00 0.00 0.00 100 1012.0
20260830083307 67 0 0.0 0.0 0.00 0.00 0.00 100 1011.8
20260830082807 67 0 0.0 0.0 0.00 0.00 0.00 100 1011.8
20260830082307 67 93 3.0 8.0 0.00 0.00 0.00 100 1011.7
20260830081806 67 0 0.0 0.0 0.00 0.00 0.00 100 1011.8
20260830081306 67 0 0.0 0.0 0.00 0.00 0.00 100 1012.0
20260830080806 67 72 1.0 5.0 0.00 0.00 0.00 100 1012.2
20260830080305 67 75 3.0 4.0 0.00 0.00 0.00 100 1012.3
20260830075805 67 75 3.0 5.0 0.00 0.00 0.00 100 1012.1
20260830074804 67 63 1.0 3.0 0.00 0.00 0.00 100 1012.0
20260830074304 67 83 1.0 3.0 0.00 0.00 0.00 100 1012.3
20260830073804 67 249 1.0 4.0 0.00 0.00 0.00 100 1012.5
20260830073303 67 0 0.0 0.0 0.00 0.00 0.00 100 1012.3
20260830072302 68 59 1.0 3.0 0.00 0.00 0.00 100 1012.4
20260830071800 68 59 1.0 3.0 0.00 0.00 0.00 99 1012.3
20260830071300 68 90 2.0 3.0 0.00 0.00 0.00 99 1012.4
20260830070800 68 98 1.0 3.0 0.00 0.00 0.00 99 1012.3
20260830070259 68 13 1.0 3.0 0.00 0.00 0.00 99 1012.4
20260830065759 68 34 0.0 2.0 0.00 0.00 0.00 99 1012.5
20260830065257 68 70 2.0 3.0 0.00 0.00 0.00 99 1012.3
20260830064757 68 48 2.0 5.0 0.00 0.00 0.00 99 1012.4
20260830064256 68 48 2.0 5.0 0.00 0.00 0.00 99 1012.4
20260830063756 68 83 2.0 8.0 0.00 0.00 0.00 98 1012.4
20260830063256 68 0 0.0 0.0 0.00 0.00 0.00 98 1012.4
20260830062756 68 0 0.0 0.0 0.00 0.00 0.00 98 1012.5
20260830061755 68 60 2.0 4.0 0.00 0.00 0.00 98 1012.4
20260830061255 68 0 0.0 0.0 0.00 0.00 0.00 98 1012.4
20260830060754 68 72 1.0 5.0 0.00 0.00 0.00 98 1012.5
20260830060254 68 49 0.0 2.0 0.00 0.00 0.00 97 1012.5
20260830055754 68 0 0.0 0.0 0.00 0.00 0.00 97 1012.6
20260830055254 68 44 0.0 2.0 0.00 0.00 0.00 97 1012.7
20260830053753 69 56 3.0 3.0 0.00 0.00 0.00 97 1012.8
20260830053252 69 24 2.0 3.0 0.00 0.00 0.00 97 1012.8
20260830052752 69 48 2.0 5.0 0.00 0.00 0.00 97 1012.9
20260830052252 69 0 0.0 0.0 0.00 0.00 0.00 96 1012.9
20260830051752 69 0 0.0 0.0 0.00 0.00 0.00 96 1012.8
20260830051251 69 0 0.0 0.0 0.00 0.00 0.00 96 1012.9
20260830050751 69 160 3.0 4.0 0.00 0.00 0.00 96 1012.9
20260830050251 69 69 1.0 5.0 0.00 0.00 0.00 96 1012.9
20260830045748 69 4 2.0 4.0 0.00 0.00 0.00 96 1012.9
20260830045248 69 70 2.0 3.0 0.00 0.00 0.00 95 1013.0
20260830044748 69 37 0.0 1.0 0.00 0.00 0.00 95 1013.0
20260830044247 69 42 1.0 3.0 0.00 0.00 0.00 95 1013.1
20260830043746 69 44 1.0 3.0 0.00 0.00 0.00 95 1013.1
20260830043246 69 66 1.0 4.0 0.00 0.00 0.00 95 1013.0
20260830042745 69 41 2.0 5.0 0.00 0.00 0.00 94 1012.9
20260830042245 69 0 0.0 0.0 0.00 0.00 0.00 94 1013.1
20260830041745 69 38 1.0 3.0 0.00 0.00 0.00 94 1013.2
20260830041244 69 0 0.0 0.0 0.00 0.00 0.00 94 1013.3
20260830040744 70 75 2.0 4.0 0.00 0.00 0.00 94 1013.3
20260830040243 69 0 0.0 0.0 0.00 0.00 0.00 93 1013.3
20260830035743 70 0 0.0 0.0 0.00 0.00 0.00 93 1013.3
20260830035242 70 0 0.0 0.0 0.00 0.00 0.00 93 1013.4
20260830034742 70 14 3.0 4.0 0.00 0.00 0.00 93 1013.3
20260830034242 70 13 3.0 5.0 0.00 0.00 0.00 93 1013.3
20260830033742 70 267 0.0 3.0 0.00 0.00 0.00 93 1013.2
20260830033241 70 59 2.0 4.0 0.00 0.00 0.00 93 1013.1
20260830032741 70 359 1.0 3.0 0.00 0.00 0.00 92 1013.0
20260830032241 70 42 2.0 5.0 0.00 0.00 0.00 92 1013.2
20260830031740 70 0 0.0 0.0 0.00 0.00 0.00 92 1013.2
20260830030740 70 53 4.0 6.0 0.00 0.00 0.00 92 1013.6
20260830030240 70 0 0.0 0.0 0.00 0.00 0.00 91 1013.4
20260830025739 70 30 1.0 5.0 0.00 0.00 0.00 91 1013.3
20260830025243 70 359 4.0 6.0 0.00 0.00 0.00 91 1013.4
20260830024235 71 76 2.0 5.0 0.00 0.00 0.00 91 1013.1
20260830023735 71 63 2.0 5.0 0.00 0.00 0.00 90 1013.0
20260830022734 71 0 0.0 0.0 0.00 0.00 0.00 90 1012.9
20260830022234 71 0 0.0 0.0 0.00 0.00 0.00 90 1012.9
20260830021734 71 58 2.0 5.0 0.00 0.00 0.00 89 1012.9
20260830021233 71 204 3.0 8.0 0.00 0.00 0.00 89 1012.8
20260830020233 72 359 1.0 3.0 0.00 0.00 0.00 88 1012.8
20260830015232 72 58 1.0 3.0 0.00 0.00 0.00 88 1012.6
20260830014732 72 0 0.0 0.0 0.00 0.00 0.00 87 1012.7
20260830014231 72 69 2.0 6.0 0.00 0.00 0.00 87 1012.7